Orbital Elements at Epoch 2459200.5 (2020-Dec-17.0) TDB
Reference: JPL 19 (heliocentric ecliptic J2000)
Element | Value | Uncertainty (1-sigma) | Units |
e | .1461457262879161 | 3.5081e-08 | |
a | 2.418869003803385 | 1.1837e-08 | au |
q | 2.065361636447211 | 8.4986e-08 | au |
i | 1.753843993492157 | 5.3714e-06 | deg |
node | 44.18531662632559 | 0.00011933 | deg |
peri | 290.275231156139 | 0.0001207 | deg |
M | 98.44364366510614 | 1.9284e-05 | deg |
tp | 2458824.747282734295 (2019-Dec-07.24728273) | 7.2646e-05 | TDB |
period | 1374.095606170672 3.76 | 1.0086e-05 2.761e-08 | d yr |
n | .2619905037053773 | 1.9231e-09 | deg/d |
Q | 2.772376371159558 | 1.3567e-08 | au |
|
| | Orbit Determination Parameters
Additional Information
|